Weather History for KHYR - January, 2013

Change the Weather History Date:

Friday, January 25, 2013

  Actual Average Record
Temperature  
Mean Temperature 10 °F -  
Max Temperature 17 °F 24 °F 43 °F (2002)
Min Temperature 1 °F -4 °F -27 °F (1997)
Degree Days  
Heating Degree Days 55    
Moisture  
Dew Point 5 °F    
Average Humidity 75    
Maximum Humidity 85    
Minimum Humidity 64    
Precipitation  
Precipitation 0.02 in - - ()
Sea Level Pressure  
Sea Level Pressure 30.00 in    
Wind  
Wind Speed 5 mph (SSW)    
Max Wind Speed 9 mph    
Max Gust Speed -    
Visibility 5 miles    
Events Snow    
Averages and records for this station are not official NWS values.
T = Trace of Precipitation, MM = Missing Value Source: NWS Daily Summary

Daily Weather History Graph

Daily Weather History Graph

Search for Another Location

Airport or City:

Trip Planner

Search our weather history database for the weather conditions in past years. The results will help you decide how hot, cold, wet, or windy it might be!

Date:

Astronomy

Jan. 25, 2013 Rise Set
Actual Time 7:35 AM CST 5:01 PM CST
Civil Twilight 7:03 AM CST 5:33 PM CST
Nautical Twilight 6:26 AM CST 6:10 PM CST
Astronomical Twilight 5:51 AM CST 6:45 PM CST
Moon 3:59 PM CST (1/25) 6:15 AM CST (1/25)
Length of Visible Light 10h 30m
Length of Day
9h 25m
Waxing Gibbous, 98% of the Moon is Illuminated
Jan 25
Waxing Gibbous
Jan 26
Full
Feb 3
Last Quarter
Feb 10
New
Feb 17
First Quarter

Hourly Weather History & Observations

Time (CST) Temp. Windchill Dew Point Humidity Pressure Visibility Wind Dir Wind Speed Gust Speed Precip Events Conditions
12:53 AM 9.0 °F -3.2 °F -0.0 °F 67% 30.21 in 10.0 mi South 8.1 mph - 0.00 in   Overcast
1:53 AM 10.0 °F 0.4 °F -0.0 °F 64% 30.19 in 6.0 mi South 5.8 mph - 0.00 in Snow Light Snow
2:53 AM 9.0 °F -4.2 °F 3.0 °F 77% 30.14 in 9.0 mi South 9.2 mph - 0.00 in   Overcast
3:53 AM 10.0 °F 0.4 °F 3.0 °F 73% 30.09 in 3.0 mi South 5.8 mph - 0.00 in Snow Light Snow
4:53 AM 10.0 °F 1.8 °F 3.9 °F 76% 30.04 in 6.0 mi Variable 4.6 mph - 0.00 in Snow Light Snow
5:09 AM 10.4 °F 0.8 °F 5.0 °F 79% 29.94 in 4.0 mi SSW 5.8 mph - 0.00 in Snow Light Snow
5:45 AM 10.4 °F 2.2 °F 5.0 °F 79% 29.93 in 2.0 mi Variable 4.6 mph - 0.00 in Snow Light Snow
5:53 AM 10.9 °F 0.2 °F 5.0 °F 77% 30.01 in 2.5 mi SSW 6.9 mph - 0.00 in Snow Light Snow
6:10 AM 10.4 °F 4.0 °F 5.0 °F 79% 29.91 in 1.0 mi SSW 3.5 mph - 0.01 in Snow Light Snow
6:16 AM 10.4 °F 4.0 °F 6.8 °F 85% 29.91 in 0.8 mi Variable 3.5 mph - 0.01 in Snow Light Snow
6:33 AM 10.4 °F 0.8 °F 6.8 °F 85% 29.90 in 1.2 mi South 5.8 mph - 0.01 in Snow Light Snow
6:44 AM 10.4 °F 2.2 °F 6.8 °F 85% 29.90 in 2.5 mi SSW 4.6 mph - 0.01 in Snow Light Snow
6:47 AM 10.4 °F 0.8 °F 6.8 °F 85% 29.90 in 3.0 mi Variable 5.8 mph - 0.01 in Snow Light Snow
6:53 AM 10.9 °F 4.7 °F 6.1 °F 81% 29.98 in 4.0 mi Variable 3.5 mph - 0.01 in Snow Light Snow
7:53 AM 10.9 °F 4.7 °F 6.1 °F 81% 29.96 in 4.0 mi Variable 3.5 mph - 0.01 in Snow Light Snow
8:11 AM 10.4 °F 2.2 °F 6.8 °F 85% 29.87 in 2.0 mi SSW 4.6 mph - 0.00 in Snow Light Snow
8:18 AM 12.2 °F 4.3 °F 6.8 °F 79% 29.87 in 1.8 mi SSW 4.6 mph - 0.00 in Snow Light Snow
8:39 AM 12.2 °F - 6.8 °F 79% 29.87 in 1.2 mi Calm Calm - 0.00 in Snow Light Snow
8:49 AM 12.2 °F 6.1 °F 6.8 °F 79% 29.87 in 1.0 mi South 3.5 mph - 0.00 in Snow Light Snow
8:53 AM 12.0 °F 5.9 °F 7.0 °F 80% 29.95 in 1.0 mi South 3.5 mph - 0.00 in Snow Light Snow
9:10 AM 12.2 °F 6.1 °F 6.8 °F 79% 29.86 in 1.2 mi South 3.5 mph - 0.00 in Snow Light Snow
9:24 AM 12.2 °F - 6.8 °F 79% 29.86 in 1.0 mi Calm Calm - 0.00 in Snow Light Snow
9:37 AM 12.2 °F 6.1 °F 8.6 °F 85% 29.87 in 1.2 mi South 3.5 mph - 0.00 in Snow Light Snow
9:53 AM 12.9 °F - 8.1 °F 81% 29.95 in 1.2 mi Calm Calm - 0.00 in Snow Light Snow
10:53 AM 14.0 °F 8.2 °F 9.0 °F 80% 29.96 in 1.5 mi Variable 3.5 mph - 0.00 in Snow Light Snow
11:07 AM 15.8 °F 10.2 °F 8.6 °F 73% 29.87 in 1.0 mi WSW 3.5 mph - 0.00 in Snow Light Snow
11:18 AM 15.8 °F - 10.4 °F 79% 29.87 in 1.5 mi Calm Calm - 0.00 in Snow Light Snow
11:29 AM 15.8 °F 7.2 °F 10.4 °F 79% 29.87 in 2.0 mi West 5.8 mph - 0.00 in Snow Light Snow
11:41 AM 15.8 °F 7.2 °F 8.6 °F 73% 29.88 in 4.0 mi Variable 5.8 mph - 0.00 in Snow Light Snow
11:53 AM 16.0 °F 7.4 °F 8.1 °F 71% 29.96 in 4.0 mi Variable 5.8 mph - 0.00 in Snow Light Snow
12:48 PM 17.6 °F 10.7 °F 8.6 °F 68% 29.89 in 6.0 mi Variable 4.6 mph - 0.00 in Snow Light Snow
12:53 PM 17.1 °F 7.6 °F 8.1 °F 68% 29.97 in 6.0 mi Variable 6.9 mph - 0.00 in Snow Light Snow
1:03 PM 17.6 °F 10.7 °F 8.6 °F 68% 29.89 in 2.5 mi Variable 4.6 mph - 0.00 in Snow Light Snow
1:11 PM 17.6 °F 10.7 °F 8.6 °F 68% 29.90 in 3.0 mi Variable 4.6 mph - 0.00 in Snow Light Snow
1:53 PM 16.0 °F 10.4 °F 8.1 °F 71% 30.01 in 4.0 mi Variable 3.5 mph - 0.00 in Snow Light Snow
2:28 PM 15.8 °F 7.2 °F 6.8 °F 68% 29.95 in 9.0 mi Variable 5.8 mph - 0.00 in   Overcast
2:53 PM 16.0 °F 8.8 °F 7.0 °F 68% 30.05 in 6.0 mi Variable 4.6 mph - 0.00 in Snow Light Snow
3:53 PM 15.1 °F 7.7 °F 5.0 °F 64% 30.07 in 7.0 mi Variable 4.6 mph - 0.00 in Snow Light Snow
4:12 PM 15.8 °F 10.2 °F 6.8 °F 68% 30.01 in 1.8 mi Variable 3.5 mph - 0.00 in Snow Light Snow
4:31 PM 14.0 °F 6.5 °F 6.8 °F 73% 30.02 in 3.0 mi Variable 4.6 mph - 0.00 in Snow Light Snow
4:53 PM 14.0 °F 6.5 °F 3.9 °F 64% 30.11 in 10.0 mi Variable 4.6 mph - 0.00 in   Overcast
5:53 PM 12.9 °F 6.9 °F 3.0 °F 65% 30.14 in 10.0 mi Variable 3.5 mph - N/A   Overcast
6:53 PM 12.0 °F 5.9 °F 3.9 °F 70% 30.17 in 10.0 mi Variable 3.5 mph - N/A   Overcast
7:53 PM 10.9 °F 1.4 °F 1.9 °F 67% 30.20 in 10.0 mi Variable 5.8 mph - N/A   Overcast
8:53 PM 10.0 °F 3.6 °F 1.0 °F 67% 30.22 in 10.0 mi Variable 3.5 mph - N/A   Overcast
9:17 PM 8.6 °F 2.0 °F 1.4 °F 73% 30.14 in 10.0 mi Variable 3.5 mph - N/A   Overcast
9:49 PM 6.8 °F -0.1 °F -0.4 °F 72% 30.14 in 10.0 mi Variable 3.5 mph - N/A   Mostly Cloudy
9:53 PM 7.0 °F - -0.0 °F 73% 30.24 in 10.0 mi Calm Calm - N/A   Overcast
10:17 PM 5.0 °F -2.1 °F -0.4 °F 78% 30.15 in 10.0 mi West 3.5 mph - N/A   Scattered Clouds
10:53 PM 3.0 °F - -2.0 °F 80% 30.26 in 10.0 mi Calm Calm - N/A   Clear
11:53 PM 1.0 °F - -2.9 °F 83% 30.30 in 10.0 mi Calm Calm - N/A   Mostly Cloudy